sat.trackr.live / text

‹ back to catalog

CHECKMATE 8

NORAD 56162 · 2023-050A

PAYLOAD ACTIVE UNKNOWN

§ Identity

Operator
Country
US
Launch date
2023-04-02
Launch site
AFWTR
Launch vehicle
Mass (kg)
RCS (m²)

External: N2YO · Heavens-Above · Gunter

§ Orbital elements

Epoch: 2026-05-24T23:11:23.036640Z

Period
103.97 min
Inclination
81.0011°
Eccentricity
0.0007255
Mean motion
13.84954427 rev/d
Perigee alt
941.1 km
Apogee alt
951.7 km
Semi-major
7,324.5 km
B*
6.3609e-5
RAAN
94.0410°
Arg perigee
32.1482°
Mean anomaly
328.0116°
Rev number
15,893

§ Raw data

CHECKMATE 81 56162U 23050A   26144.96623885  .00000083  00000+0  63609-4 0  99922 56162  81.0011  94.0410 0007255  32.1482 328.0116 13.84954427158934

JSON: /api/v1/satellites/56162 · /tle

For live sub-satellite position, see the globe view (requires WebGL).

§ Visibility from observer

Set your observer location to see the next 7 days of passes ≥ 10°. The values pass through the URL so the page stays shareable.

No JS? Fill the form by hand. The geolocation button needs JavaScript.